Location: Quedlinburg
(51.7921°N, 11.1414°E)
Time: 15:13:32
(UTC+02:00)

CUBESAT XI-V - Pass Details

Date: 21 March 2026
Orbit: 643 x 664 km, 98.3° (Epoch: 17 April)

Event Time Altitude Azimuth Distance (km) Brightness Sun altitude
Exits shadow 04:27:34 18° 298° (WNW) 1,617 ? -17.2°
Drops below altitude 10° 04:29:20 10° 319° (NW) 2,064 ? -16.9°
Sets 04:32:01 0° 335° (NNW) 2,976 ? -16.5°
